Location: Home
(42.5358°N, 72.7383°W)
Time: 19:56:46
(UTC-05:00)

Explorer 7 - Pass Details

Date: 08 December 2021
Orbit: 483 x 674 km, 50.3° (Epoch: 23 January)

Event Time Altitude Azimuth Distance (km) Brightness Sun altitude
Rises 05:16:21 0° 264° (W) 2,864 - -19.9°
Reaches altitude 10° 05:18:50 10° 272° (W) 1,927 - -19.4°
Exits shadow 05:22:27 37° 323° (NW) 899 7.5 -18.8°
Maximum altitude 05:22:58 39° 342° (NNW) 868 7.5 -18.7°
Drops below altitude 10° 05:26:52 10° 52° (NE) 1,817 10.0 -18.0°
Sets 05:29:09 0° 60° (ENE) 2,677 11.0 -17.6°
